Location: Altmatt
(47.1333°N, 8.7000°E)
Time: 17:48:41
(UTC+00:00)

Cosmos 2341 Rocket - Pass Details

Date: 13 July 2020
Orbit: 969 x 1004 km, 82.9° (Epoch: 13 August)

Event Time Altitude Azimuth Distance (km) Brightness Sun altitude
Exits shadow 21:43:32 22° 183° (S) 1,991 5.1 -17.1°
Maximum altitude 21:47:47 84° 97° (E) 981 3.9 -17.4°
Drops below altitude 10° 21:54:01 10° 10° (N) 2,723 7.2 -17.8°
Sets 21:56:32 0° 10° (N) 3,675 8.0 -18.0°
